Location: Mahannah Oil Field
(37.4664°N, 96.6003°W)
Time: 17:41:55
(UTC+00:00)

Transit 2A Rocket - Pass Details

Date: 24 January 2021
Orbit: 594 x 908 km, 66.7° (Epoch: 05 March)

Event Time Altitude Azimuth Distance (km) Brightness Sun altitude
Rises 17:32:01 0° 187° (S) 3,406 9.3 31.4°
Reaches altitude 10° 17:34:40 10° 180° (S) 2,432 8.9 31.5°
Maximum altitude 17:39:52 40° 112° (ESE) 1,139 6.8 31.8°
Drops below altitude 10° 17:44:41 10° 44° (NE) 2,250 7.2 32.1°
Sets 17:47:03 0° 37° (NE) 3,125 7.8 32.2°
